Location: Fours
(44.3167°N, 6.7000°E)
Time: 21:20:30
(UTC+00:00)

Cosmos 2227 - Pass Details

Date: 30 May 2022
Orbit: 832 x 863 km, 71.0° (Epoch: 03 July)

Event Time Altitude Azimuth Distance (km) Brightness Sun altitude
Rises 20:03:58 0° 337° (NNW) 3,445 8.8 -8.7°
Reaches altitude 10° 20:06:29 10° 341° (NNW) 2,508 7.8 -9.0°
Maximum altitude 20:12:11 61° 61° (ENE) 978 4.5 -9.8°
Enters shadow 20:17:15 13° 140° (SE) 2,269 5.8 -10.4°
